| time (UTC) | temp C | wind direction | speed KPH | gust KPH | rain 1hr cm | rain 24hr cm | rain mn cm | humidity % | barometer mb |
| 20260508131003 | 10 | 350 | 14.5 | 17.7 | 0.00 | 0.00 | 0.00 | 36 | 1017.8 |
| 20260508130503 | 10 | 352 | 12.9 | 17.7 | 0.00 | 0.00 | 0.00 | 36 | 1017.7 |
| 20260508130003 | 10 | 354 | 12.9 | 16.1 | 0.00 | 0.00 | 0.00 | 37 | 1017.7 |
| 20260508125503 | 9 | 354 | 12.9 | 16.1 | 0.00 | 0.00 | 0.00 | 37 | 1017.7 |
| 20260508125003 | 9 | 355 | 11.3 | 14.5 | 0.00 | 0.00 | 0.00 | 38 | 1017.7 |
| 20260508124503 | 8 | 356 | 12.9 | 14.5 | 0.00 | 0.00 | 0.00 | 38 | 1017.7 |
| 20260508124003 | 8 | 1 | 12.9 | 14.5 | 0.00 | 0.00 | 0.00 | 38 | 1017.7 |
| 20260508123503 | 8 | 4 | 12.9 | 14.5 | 0.00 | 0.00 | 0.00 | 38 | 1017.7 |
| 20260508123003 | 8 | 1 | 11.3 | 14.5 | 0.00 | 0.00 | 0.00 | 37 | 1017.7 |
| 20260508122716 | 8 | 357 | 11.3 | 12.9 | 0.00 | 0.00 | 0.00 | 36 | 1017.6 |
| 20260508122003 | 8 | 358 | 11.3 | 14.5 | 0.00 | 0.00 | 0.00 | 37 | 1017.5 |
| 20260508121503 | 8 | 357 | 11.3 | 14.5 | 0.00 | 0.00 | 0.00 | 37 | 1017.5 |
| 20260508121217 | 9 | 356 | 11.3 | 14.5 | 0.00 | 0.00 | 0.00 | 36 | 1017.5 |
| 20260508120503 | 8 | 353 | 11.3 | 14.5 | 0.00 | 0.00 | 0.00 | 36 | 1017.5 |
| 20260508120003 | 9 | 352 | 11.3 | 14.5 | 0.00 | 0.00 | 0.00 | 36 | 1017.5 |
| 20260508115503 | 8 | 353 | 9.7 | 14.5 | 0.00 | 0.00 | 0.00 | 37 | 1017.5 |
| 20260508115003 | 8 | 353 | 9.7 | 14.5 | 0.00 | 0.00 | 0.00 | 37 | 1017.4 |
| 20260508114503 | 8 | 354 | 9.7 | 12.9 | 0.00 | 0.00 | 0.00 | 37 | 1017.5 |
| 20260508114217 | 8 | 354 | 9.7 | 12.9 | 0.00 | 0.00 | 0.00 | 37 | 1017.5 |
| 20260508113503 | 8 | 354 | 9.7 | 12.9 | 0.00 | 0.00 | 0.00 | 37 | 1017.5 |
| 20260508113003 | 8 | 355 | 11.3 | 12.9 | 0.00 | 0.00 | 0.00 | 37 | 1017.5 |
| 20260508112504 | 8 | 355 | 11.3 | 12.9 | 0.00 | 0.00 | 0.00 | 38 | 1017.5 |
| 20260508112003 | 8 | 355 | 9.7 | 12.9 | 0.00 | 0.00 | 0.00 | 38 | 1017.5 |
| 20260508111503 | 8 | 355 | 9.7 | 12.9 | 0.00 | 0.00 | 0.00 | 38 | 1017.5 |
| 20260508111003 | 8 | 355 | 9.7 | 12.9 | 0.00 | 0.00 | 0.00 | 38 | 1017.5 |
| 20260508110718 | 8 | 355 | 8.0 | 9.7 | 0.00 | 0.00 | 0.00 | 39 | 1017.5 |
| 20260508110003 | 8 | 355 | 9.7 | 12.9 | 0.00 | 0.00 | 0.00 | 39 | 1017.6 |
| 20260508105718 | 7 | 355 | 9.7 | 12.9 | 0.00 | 0.00 | 0.00 | 41 | 1017.6 |
| 20260508105003 | 8 | 355 | 9.7 | 12.9 | 0.00 | 0.00 | 0.00 | 39 | 1017.6 |
| 20260508104503 | 8 | 355 | 9.7 | 12.9 | 0.00 | 0.00 | 0.00 | 37 | 1017.7 |
| 20260508104003 | 8 | 355 | 9.7 | 12.9 | 0.00 | 0.00 | 0.00 | 38 | 1017.6 |
| 20260508103503 | 8 | 355 | 11.3 | 12.9 | 0.00 | 0.00 | 0.00 | 38 | 1017.5 |
| 20260508103003 | 8 | 355 | 11.3 | 12.9 | 0.00 | 0.00 | 0.00 | 39 | 1017.5 |
| 20260508102503 | 7 | 358 | 11.3 | 12.9 | 0.00 | 0.00 | 0.00 | 41 | 1017.5 |
| 20260508102003 | 6 | 10 | 11.3 | 12.9 | 0.00 | 0.00 | 0.00 | 46 | 1017.5 |
| 20260508101503 | 4 | 20 | 9.7 | 12.9 | 0.00 | 0.00 | 0.00 | 48 | 1017.5 |
| 20260508101003 | 6 | 11 | 11.3 | 12.9 | 0.00 | 0.00 | 0.00 | 42 | 1017.6 |
| 20260508100503 | 8 | 359 | 11.3 | 14.5 | 0.00 | 0.00 | 0.00 | 39 | 1017.5 |
| 20260508100003 | 8 | 355 | 12.9 | 16.1 | 0.00 | 0.00 | 0.00 | 38 | 1017.5 |
| 20260508095503 | 8 | 353 | 12.9 | 16.1 | 0.00 | 0.00 | 0.00 | 39 | 1017.5 |
| 20260508095003 | 8 | 348 | 14.5 | 16.1 | 0.00 | 0.00 | 0.00 | 39 | 1017.4 |
| 20260508094503 | 8 | 346 | 14.5 | 16.1 | 0.00 | 0.00 | 0.00 | 39 | 1017.4 |
| 20260508094003 | 8 | 346 | 14.5 | 16.1 | 0.00 | 0.00 | 0.00 | 40 | 1017.4 |
| 20260508093717 | 8 | 346 | 14.5 | 16.1 | 0.00 | 0.00 | 0.00 | 40 | 1017.3 |
| 20260508093218 | 7 | 347 | 12.9 | 16.1 | 0.00 | 0.00 | 0.00 | 41 | 1017.3 |
| 20260508092503 | 8 | 348 | 12.9 | 14.5 | 0.00 | 0.00 | 0.00 | 40 | 1017.5 |
| 20260508092218 | 8 | 348 | 12.9 | 14.5 | 0.00 | 0.00 | 0.00 | 40 | 1017.5 |
| 20260508091503 | 8 | 350 | 11.3 | 14.5 | 0.00 | 0.00 | 0.00 | 40 | 1017.5 |
| 20260508091003 | 8 | 354 | 9.7 | 14.5 | 0.00 | 0.00 | 0.00 | 40 | 1017.5 |
| 20260508090503 | 8 | 353 | 11.3 | 12.9 | 0.00 | 0.00 | 0.00 | 40 | 1017.5 |
| 20260508090003 | 8 | 351 | 11.3 | 14.5 | 0.00 | 0.00 | 0.00 | 40 | 1017.6 |
| 20260508085503 | 8 | 348 | 11.3 | 14.5 | 0.00 | 0.00 | 0.00 | 40 | 1017.6 |
| 20260508085003 | 8 | 347 | 11.3 | 14.5 | 0.00 | 0.00 | 0.00 | 40 | 1017.7 |
| 20260508084717 | 8 | 346 | 11.3 | 14.5 | 0.00 | 0.00 | 0.00 | 40 | 1017.7 |
| 20260508084003 | 8 | 346 | 12.9 | 14.5 | 0.00 | 0.00 | 0.00 | 40 | 1017.7 |
| 20260508083503 | 8 | 346 | 11.3 | 14.5 | 0.00 | 0.00 | 0.00 | 40 | 1017.7 |
| 20260508083003 | 7 | 345 | 11.3 | 14.5 | 0.00 | 0.00 | 0.00 | 40 | 1017.7 |
| 20260508082717 | 7 | 345 | 11.3 | 14.5 | 0.00 | 0.00 | 0.00 | 40 | 1017.8 |
| 20260508082003 | 7 | 346 | 11.3 | 14.5 | 0.00 | 0.00 | 0.00 | 41 | 1017.8 |
| 20260508081503 | 7 | 349 | 11.3 | 14.5 | 0.00 | 0.00 | 0.00 | 42 | 1017.8 |
| 20260508081218 | 7 | 351 | 11.3 | 14.5 | 0.00 | 0.00 | 0.00 | 42 | 1017.7 |
| 20260508080503 | 7 | 354 | 8.0 | 12.9 | 0.00 | 0.00 | 0.00 | 41 | 1017.8 |
| 20260508080218 | 7 | 353 | 8.0 | 9.7 | 0.00 | 0.00 | 0.00 | 40 | 1017.8 |
| 20260508075503 | 7 | 353 | 8.0 | 9.7 | 0.00 | 0.00 | 0.00 | 40 | 1017.8 |
| 20260508075218 | 7 | 352 | 8.0 | 9.7 | 0.00 | 0.00 | 0.00 | 40 | 1017.8 |
| 20260508074503 | 7 | 347 | 8.0 | 12.9 | 0.00 | 0.00 | 0.00 | 39 | 1017.8 |
| 20260508074003 | 8 | 343 | 11.3 | 14.5 | 0.00 | 0.00 | 0.00 | 39 | 1017.9 |
| 20260508073503 | 7 | 340 | 11.3 | 14.5 | 0.00 | 0.00 | 0.00 | 39 | 1017.9 |
| 20260508073217 | 7 | 338 | 11.3 | 14.5 | 0.00 | 0.00 | 0.00 | 39 | 1017.9 |
| 20260508072503 | 8 | 332 | 9.7 | 12.9 | 0.00 | 0.00 | 0.00 | 39 | 1018.0 |
| 20260508072217 | 8 | 333 | 9.7 | 14.5 | 0.00 | 0.00 | 0.00 | 39 | 1017.9 |
| 20260508071716 | 8 | 333 | 9.7 | 14.5 | 0.00 | 0.00 | 0.00 | 39 | 1017.9 |
| 20260508071003 | 8 | 334 | 11.3 | 14.5 | 0.00 | 0.00 | 0.00 | 38 | 1017.8 |
| 20260508070503 | 8 | 339 | 11.3 | 14.5 | 0.00 | 0.00 | 0.00 | 36 | 1017.9 |
| 20260508070004 | 9 | 344 | 12.9 | 14.5 | 0.00 | 0.00 | 0.00 | 35 | 1017.9 |
| 20260508065503 | 9 | 348 | 12.9 | 14.5 | 0.00 | 0.00 | 0.00 | 35 | 1017.9 |
| 20260508065003 | 9 | 350 | 12.9 | 14.5 | 0.00 | 0.00 | 0.00 | 36 | 1017.9 |
| 20260508064718 | 9 | 351 | 11.3 | 14.5 | 0.00 | 0.00 | 0.00 | 36 | 1017.9 |
| 20260508064003 | 9 | 353 | 11.3 | 12.9 | 0.00 | 0.00 | 0.00 | 36 | 1018.0 |
| 20260508063503 | 9 | 349 | 12.9 | 14.5 | 0.00 | 0.00 | 0.00 | 36 | 1017.9 |
| 20260508063003 | 9 | 344 | 11.3 | 14.5 | 0.00 | 0.00 | 0.00 | 36 | 1017.9 |
| 20260508062503 | 10 | 343 | 11.3 | 14.5 | 0.00 | 0.00 | 0.00 | 36 | 1018.0 |
| 20260508062003 | 10 | 342 | 11.3 | 14.5 | 0.00 | 0.00 | 0.00 | 35 | 1017.9 |
| 20260508061718 | 10 | 341 | 11.3 | 14.5 | 0.00 | 0.00 | 0.00 | 35 | 1017.9 |
| 20260508061003 | 10 | 328 | 8.0 | 14.5 | 0.00 | 0.00 | 0.00 | 35 | 1017.8 |
| 20260508060503 | 10 | 314 | 8.0 | 11.3 | 0.00 | 0.00 | 0.00 | 34 | 1017.9 |
| 20260508060003 | 10 | 301 | 9.7 | 14.5 | 0.00 | 0.00 | 0.00 | 34 | 1017.9 |
| 20260508055503 | 11 | 295 | 8.0 | 14.5 | 0.00 | 0.00 | 0.00 | 33 | 1017.9 |
| 20260508055003 | 11 | 320 | 6.4 | 12.9 | 0.00 | 0.00 | 0.00 | 32 | 1017.9 |
| 20260508054503 | 11 | 346 | 6.4 | 8.0 | 0.00 | 0.00 | 0.00 | 32 | 1017.8 |
| 20260508054003 | 11 | 344 | 8.0 | 12.9 | 0.00 | 0.00 | 0.00 | 32 | 1017.7 |
| 20260508053503 | 11 | 343 | 9.7 | 12.9 | 0.00 | 0.00 | 0.00 | 31 | 1017.8 |
| 20260508053003 | 12 | 343 | 9.7 | 12.9 | 0.00 | 0.00 | 0.00 | 31 | 1017.7 |
| 20260508052718 | 12 | 344 | 9.7 | 12.9 | 0.00 | 0.00 | 0.00 | 31 | 1017.7 |
| 20260508052003 | 12 | 349 | 8.0 | 12.9 | 0.00 | 0.00 | 0.00 | 31 | 1017.8 |
| 20260508051503 | 11 | 352 | 8.0 | 9.7 | 0.00 | 0.00 | 0.00 | 32 | 1017.8 |
| 20260508051003 | 11 | 354 | 8.0 | 9.7 | 0.00 | 0.00 | 0.00 | 32 | 1017.9 |
| 20260508050504 | 11 | 350 | 9.7 | 12.9 | 0.00 | 0.00 | 0.00 | 32 | 1017.8 |
| 20260508050003 | 11 | 347 | 9.7 | 12.9 | 0.00 | 0.00 | 0.00 | 32 | 1017.8 |
| 20260508045503 | 11 | 351 | 11.3 | 16.1 | 0.00 | 0.00 | 0.00 | 32 | 1017.7 |
| 20260508045003 | 11 | 352 | 12.9 | 17.7 | 0.00 | 0.00 | 0.00 | 32 | 1017.8 |
| 20260508044503 | 11 | 354 | 12.9 | 17.7 | 0.00 | 0.00 | 0.00 | 32 | 1017.8 |
| 20260508044003 | 11 | 2 | 8.0 | 17.7 | 0.00 | 0.00 | 0.00 | 32 | 1017.8 |
| 20260508043717 | 11 | 8 | 8.0 | 16.1 | 0.00 | 0.00 | 0.00 | 32 | 1017.8 |
| 20260508043003 | 11 | 15 | 8.0 | 11.3 | 0.00 | 0.00 | 0.00 | 32 | 1017.8 |
| 20260508042717 | 11 | 15 | 6.4 | 11.3 | 0.00 | 0.00 | 0.00 | 32 | 1017.8 |
| 20260508042003 | 11 | 13 | 8.0 | 11.3 | 0.00 | 0.00 | 0.00 | 31 | 1017.8 |
| 20260508041504 | 12 | 8 | 8.0 | 12.9 | 0.00 | 0.00 | 0.00 | 31 | 1017.8 |
| 20260508041003 | 12 | 3 | 9.7 | 16.1 | 0.00 | 0.00 | 0.00 | 30 | 1017.8 |
| 20260508040717 | 12 | 359 | 11.3 | 17.7 | 0.00 | 0.00 | 0.00 | 30 | 1017.7 |
| 20260508040003 | 12 | 354 | 12.9 | 17.7 | 0.00 | 0.00 | 0.00 | 29 | 1017.5 |
| 20260508035503 | 12 | 1 | 11.3 | 17.7 | 0.00 | 0.00 | 0.00 | 30 | 1017.5 |
| 20260508035003 | 12 | 8 | 9.7 | 12.9 | 0.00 | 0.00 | 0.00 | 30 | 1017.5 |
| 20260508034503 | 12 | 11 | 9.7 | 12.9 | 0.00 | 0.00 | 0.00 | 30 | 1017.5 |
| 20260508034218 | 12 | 10 | 9.7 | 12.9 | 0.00 | 0.00 | 0.00 | 30 | 1017.5 |
| 20260508033503 | 12 | 355 | 11.3 | 16.1 | 0.00 | 0.00 | 0.00 | 29 | 1017.4 |
| 20260508033003 | 12 | 346 | 12.9 | 19.3 | 0.00 | 0.00 | 0.00 | 28 | 1017.3 |
| 20260508032717 | 13 | 345 | 14.5 | 19.3 | 0.00 | 0.00 | 0.00 | 28 | 1017.3 |
| 20260508032218 | 13 | 341 | 14.5 | 19.3 | 0.00 | 0.00 | 0.00 | 28 | 1017.2 |
| 20260508031503 | 12 | 340 | 12.9 | 20.9 | 0.00 | 0.00 | 0.00 | 28 | 1017.0 |
| 20260508031003 | 12 | 337 | 9.7 | 16.1 | 0.00 | 0.00 | 0.00 | 29 | 1017.0 |
| 20260508030503 | 13 | 328 | 9.7 | 16.1 | 0.00 | 0.00 | 0.00 | 29 | 1017.0 |
| 20260508030003 | 13 | 321 | 9.7 | 16.1 | 0.00 | 0.00 | 0.00 | 28 | 1017.0 |
| 20260508025717 | 13 | 320 | 9.7 | 16.1 | 0.00 | 0.00 | 0.00 | 28 | 1017.0 |
| 20260508025003 | 13 | 315 | 12.9 | 16.1 | 0.00 | 0.00 | 0.00 | 28 | 1016.8 |
| 20260508024503 | 13 | 312 | 14.5 | 22.5 | 0.00 | 0.00 | 0.00 | 28 | 1016.7 |
| 20260508024003 | 13 | 311 | 16.1 | 24.1 | 0.00 | 0.00 | 0.00 | 28 | 1016.6 |
| 20260508023503 | 13 | 309 | 19.3 | 25.7 | 0.00 | 0.00 | 0.00 | 27 | 1016.6 |
| 20260508023217 | 13 | 307 | 19.3 | 32.2 | 0.00 | 0.00 | 0.00 | 27 | 1016.6 |
| 20260508022503 | 13 | 302 | 24.1 | 33.8 | 0.00 | 0.00 | 0.00 | 27 | 1016.4 |
| 20260508022003 | 14 | 301 | 25.7 | 45.1 | 0.00 | 0.00 | 0.00 | 27 | 1016.3 |
| 20260508021503 | 14 | 301 | 27.4 | 45.1 | 0.00 | 0.00 | 0.00 | 26 | 1016.2 |
| 20260508021003 | 14 | 300 | 29.0 | 45.1 | 0.00 | 0.00 | 0.00 | 26 | 1016.1 |
| 20260508020503 | 14 | 299 | 30.6 | 46.7 | 0.00 | 0.00 | 0.00 | 26 | 1016.1 |
| 20260508020003 | 15 | 302 | 29.0 | 46.7 | 0.00 | 0.00 | 0.00 | 25 | 1015.9 |
| 20260508015503 | 15 | 307 | 25.7 | 37.0 | 0.00 | 0.00 | 0.00 | 25 | 1015.9 |
| 20260508015217 | 15 | 306 | 27.4 | 46.7 | 0.00 | 0.00 | 0.00 | 25 | 1015.9 |
| 20260508014503 | 15 | 302 | 29.0 | 46.7 | 0.00 | 0.00 | 0.00 | 25 | 1015.8 |
| 20260508014003 | 15 | 300 | 29.0 | 41.8 | 0.00 | 0.00 | 0.00 | 25 | 1015.8 |
| 20260508013503 | 15 | 301 | 30.6 | 41.8 | 0.00 | 0.00 | 0.00 | 25 | 1015.7 |
| 20260508013003 | 15 | 303 | 27.4 | 41.8 | 0.00 | 0.00 | 0.00 | 24 | 1015.6 |
| 20260508012503 | 15 | 301 | 27.4 | 41.8 | 0.00 | 0.00 | 0.00 | 24 | 1015.6 |
| 20260508012003 | 15 | 299 | 30.6 | 41.8 | 0.00 | 0.00 | 0.00 | 24 | 1015.5 |
| 20260508011503 | 15 | 301 | 29.0 | 43.5 | 0.00 | 0.00 | 0.00 | 24 | 1015.6 |
| 20260508011003 | 16 | 299 | 30.6 | 43.5 | 0.00 | 0.00 | 0.00 | 23 | 1015.6 |
| 20260508010503 | 16 | 295 | 30.6 | 41.8 | 0.00 | 0.00 | 0.00 | 23 | 1015.5 |
| 20260508010003 | 16 | 295 | 30.6 | 45.1 | 0.00 | 0.00 | 0.00 | 22 | 1015.4 |
| 20260508005503 | 16 | 293 | 30.6 | 45.1 | 0.00 | 0.00 | 0.00 | 22 | 1015.4 |
| 20260508005003 | 17 | 290 | 30.6 | 45.1 | 0.00 | 0.00 | 0.00 | 22 | 1015.4 |
| 20260508004718 | 16 | 288 | 32.2 | 45.1 | 0.00 | 0.00 | 0.00 | 21 | 1015.5 |
| 20260508004003 | 17 | 286 | 33.8 | 46.7 | 0.00 | 0.00 | 0.00 | 21 | 1015.6 |
| 20260508003503 | 17 | 283 | 32.2 | 46.7 | 0.00 | 0.00 | 0.00 | 21 | 1015.5 |
| 20260508003003 | 17 | 280 | 32.2 | 48.3 | 0.00 | 0.00 | 0.00 | 21 | 1015.5 |
| 20260508002503 | 17 | 285 | 29.0 | 48.3 | 0.00 | 0.00 | 0.00 | 21 | 1015.6 |
| 20260508002217 | 17 | 288 | 29.0 | 46.7 | 0.00 | 0.00 | 0.00 | 21 | 1015.6 |
| 20260508001718 | 17 | 285 | 29.0 | 41.8 | 0.00 | 0.00 | 0.00 | 21 | 1015.6 |
| 20260508001003 | 17 | 289 | 32.2 | 46.7 | 0.00 | 0.00 | 0.00 | 20 | 1015.6 |
| 20260508000718 | 17 | 287 | 32.2 | 46.7 | 0.00 | 0.00 | 0.00 | 20 | 1015.6 |
| 20260508000003 | 17 | 281 | 29.0 | 41.8 | 0.00 | 0.00 | 0.00 | 20 | 1015.6 |
| 20260507235503 | 17 | 281 | 27.4 | 46.7 | 0.00 | 0.00 | 0.00 | 19 | 1015.7 |
| 20260507235216 | 17 | 281 | 25.7 | 46.7 | 0.00 | 0.00 | 0.00 | 20 | 1015.7 |
| 20260507234718 | 17 | 276 | 25.7 | 38.6 | 0.00 | 0.00 | 0.00 | 20 | 1015.6 |
| 20260507234003 | 17 | 274 | 29.0 | 43.5 | 0.00 | 0.00 | 0.00 | 20 | 1015.8 |
| 20260507233503 | 17 | 275 | 30.6 | 46.7 | 0.00 | 0.00 | 0.00 | 20 | 1015.8 |
| 20260507233003 | 17 | 276 | 29.0 | 46.7 | 0.00 | 0.00 | 0.00 | 20 | 1015.8 |
| 20260507232503 | 17 | 277 | 25.7 | 46.7 | 0.00 | 0.00 | 0.00 | 19 | 1015.9 |
| 20260507232003 | 17 | 275 | 29.0 | 46.7 | 0.00 | 0.00 | 0.00 | 20 | 1015.9 |
| 20260507231717 | 17 | 273 | 30.6 | 46.7 | 0.00 | 0.00 | 0.00 | 19 | 1015.9 |
| 20260507231216 | 17 | 272 | 29.0 | 51.5 | 0.00 | 0.00 | 0.00 | 20 | 1015.9 |
| 20260507230503 | 17 | 277 | 24.1 | 41.8 | 0.00 | 0.00 | 0.00 | 20 | 1016.0 |
| 20260507230003 | 17 | 279 | 24.1 | 41.8 | 0.00 | 0.00 | 0.00 | 20 | 1016.1 |
| 20260507225503 | 17 | 275 | 25.7 | 41.8 | 0.00 | 0.00 | 0.00 | 19 | 1016.1 |
| 20260507225003 | 17 | 266 | 25.7 | 43.5 | 0.00 | 0.00 | 0.00 | 19 | 1016.1 |
| 20260507224504 | 17 | 267 | 24.1 | 43.5 | 0.00 | 0.00 | 0.00 | 20 | 1016.1 |
| 20260507224003 | 17 | 292 | 20.9 | 38.6 | 0.00 | 0.00 | 0.00 | 20 | 1016.2 |
| 20260507223717 | 17 | 291 | 20.9 | 38.6 | 0.00 | 0.00 | 0.00 | 20 | 1016.2 |
| 20260507223003 | 17 | 262 | 22.5 | 38.6 | 0.00 | 0.00 | 0.00 | 21 | 1016.2 |
| 20260507222503 | 17 | 267 | 20.9 | 38.6 | 0.00 | 0.00 | 0.00 | 19 | 1016.3 |
| 20260507222003 | 17 | 263 | 19.3 | 30.6 | 0.00 | 0.00 | 0.00 | 19 | 1016.4 |
| 20260507221503 | 17 | 260 | 20.9 | 33.8 | 0.00 | 0.00 | 0.00 | 21 | 1016.4 |
| 20260507221003 | 17 | 266 | 20.9 | 33.8 | 0.00 | 0.00 | 0.00 | 20 | 1016.5 |
| 20260507220503 | 17 | 255 | 19.3 | 33.8 | 0.00 | 0.00 | 0.00 | 20 | 1016.5 |
| 20260507220003 | 17 | 239 | 20.9 | 40.2 | 0.00 | 0.00 | 0.00 | 20 | 1016.5 |
| 20260507215503 | 17 | 235 | 24.1 | 40.2 | 0.00 | 0.00 | 0.00 | 19 | 1016.6 |
| 20260507215218 | 17 | 240 | 24.1 | 40.2 | 0.00 | 0.00 | 0.00 | 19 | 1016.6 |
| 20260507214503 | 18 | 244 | 17.7 | 38.6 | 0.00 | 0.00 | 0.00 | 19 | 1016.9 |
| 20260507214003 | 17 | 242 | 17.7 | 37.0 | 0.00 | 0.00 | 0.00 | 19 | 1016.9 |
| 20260507213503 | 17 | 240 | 24.1 | 38.6 | 0.00 | 0.00 | 0.00 | 18 | 1017.0 |
| 20260507213003 | 16 | 222 | 24.1 | 38.6 | 0.00 | 0.00 | 0.00 | 18 | 1017.1 |
| 20260507212503 | 16 | 216 | 20.9 | 37.0 | 0.00 | 0.00 | 0.00 | 19 | 1017.2 |
| 20260507212003 | 16 | 212 | 20.9 | 33.8 | 0.00 | 0.00 | 0.00 | 19 | 1017.3 |
| 20260507211719 | 16 | 209 | 19.3 | 40.2 | 0.00 | 0.00 | 0.00 | 18 | 1017.4 |
| 20260507211003 | 16 | 213 | 22.5 | 40.2 | 0.00 | 0.00 | 0.00 | 19 | 1017.5 |
| 20260507210716 | 16 | 206 | 20.9 | 37.0 | 0.00 | 0.00 | 0.00 | 18 | 1017.6 |
| 20260507210003 | 16 | 203 | 17.7 | 32.2 | 0.00 | 0.00 | 0.00 | 19 | 1017.7 |
| 20260507205503 | 16 | 215 | 20.9 | 35.4 | 0.00 | 0.00 | 0.00 | 19 | 1017.9 |
| 20260507205217 | 15 | 219 | 19.3 | 35.4 | 0.00 | 0.00 | 0.00 | 19 | 1017.8 |
| 20260507204503 | 15 | 225 | 14.5 | 30.6 | 0.00 | 0.00 | 0.00 | 19 | 1018.0 |
| 20260507204003 | 16 | 218 | 17.7 | 35.4 | 0.00 | 0.00 | 0.00 | 18 | 1018.1 |
| 20260507203503 | 15 | 210 | 20.9 | 35.4 | 0.00 | 0.00 | 0.00 | 18 | 1018.2 |
| 20260507203003 | 15 | 203 | 16.1 | 33.8 | 0.00 | 0.00 | 0.00 | 18 | 1018.2 |
| 20260507202503 | 15 | 211 | 16.1 | 33.8 | 0.00 | 0.00 | 0.00 | 19 | 1018.3 |
| 20260507202217 | 15 | 211 | 16.1 | 33.8 | 0.00 | 0.00 | 0.00 | 19 | 1018.4 |
| 20260507201503 | 15 | 194 | 16.1 | 30.6 | 0.00 | 0.00 | 0.00 | 18 | 1018.5 |
| 20260507201003 | 15 | 191 | 14.5 | 29.0 | 0.00 | 0.00 | 0.00 | 18 | 1018.6 |
| 20260507200716 | 15 | 210 | 14.5 | 33.8 | 0.00 | 0.00 | 0.00 | 18 | 1018.6 |
| 20260507200003 | 15 | 234 | 16.1 | 33.8 | 0.00 | 0.00 | 0.00 | 17 | 1018.6 |
| 20260507195503 | 14 | 204 | 16.1 | 32.2 | 0.00 | 0.00 | 0.00 | 18 | 1018.7 |
| 20260507195003 | 14 | 189 | 12.9 | 25.7 | 0.00 | 0.00 | 0.00 | 19 | 1018.8 |
| 20260507194718 | 14 | 192 | 12.9 | 24.1 | 0.00 | 0.00 | 0.00 | 17 | 1018.9 |
| 20260507194217 | 14 | 198 | 14.5 | 24.1 | 0.00 | 0.00 | 0.00 | 17 | 1019.0 |
| 20260507193503 | 14 | 225 | 9.7 | 24.1 | 0.00 | 0.00 | 0.00 | 17 | 1019.1 |
| 20260507193217 | 14 | 248 | 8.0 | 22.5 | 0.00 | 0.00 | 0.00 | 19 | 1019.2 |
| 20260507192503 | 14 | 227 | 6.4 | 19.3 | 0.00 | 0.00 | 0.00 | 18 | 1019.2 |
| 20260507192217 | 14 | 259 | 6.4 | 16.1 | 0.00 | 0.00 | 0.00 | 18 | 1019.2 |
| 20260507191718 | 13 | 272 | 14.5 | 30.6 | 0.00 | 0.00 | 0.00 | 19 | 1019.4 |
| 20260507191003 | 13 | 242 | 12.9 | 30.6 | 0.00 | 0.00 | 0.00 | 18 | 1019.4 |
| 20260507190718 | 13 | 223 | 12.9 | 24.1 | 0.00 | 0.00 | 0.00 | 19 | 1019.4 |
| 20260507190217 | 13 | 215 | 16.1 | 24.1 | 0.00 | 0.00 | 0.00 | 18 | 1019.5 |
| 20260507185503 | 13 | 231 | 11.3 | 24.1 | 0.00 | 0.00 | 0.00 | 19 | 1019.5 |
| 20260507185003 | 13 | 257 | 11.3 | 22.5 | 0.00 | 0.00 | 0.00 | 21 | 1019.6 |
| 20260507184503 | 13 | 250 | 14.5 | 22.5 | 0.00 | 0.00 | 0.00 | 20 | 1019.7 |
| 20260507184003 | 12 | 190 | 16.1 | 27.4 | 0.00 | 0.00 | 0.00 | 19 | 1019.9 |
| 20260507183503 | 12 | 166 | 14.5 | 27.4 | 0.00 | 0.00 | 0.00 | 20 | 1019.8 |
| 20260507183003 | 12 | 235 | 14.5 | 25.7 | 0.00 | 0.00 | 0.00 | 22 | 1019.9 |
| 20260507182503 | 12 | 242 | 14.5 | 29.0 | 0.00 | 0.00 | 0.00 | 20 | 1020.0 |
| 20260507182003 | 12 | 211 | 11.3 | 29.0 | 0.00 | 0.00 | 0.00 | 21 | 1020.0 |
| 20260507181503 | 12 | 191 | 9.7 | 19.3 | 0.00 | 0.00 | 0.00 | 21 | 1020.0 |
| 20260507181218 | 12 | 222 | 11.3 | 19.3 | 0.00 | 0.00 | 0.00 | 20 | 1020.1 |
| 20260507180503 | 12 | 254 | 11.3 | 19.3 | 0.00 | 0.00 | 0.00 | 21 | 1020.1 |
| 20260507180003 | 12 | 222 | 11.3 | 22.5 | 0.00 | 0.00 | 0.00 | 20 | 1020.2 |
| 20260507175503 | 12 | 177 | 9.7 | 22.5 | 0.00 | 0.00 | 0.00 | 21 | 1020.2 |
| 20260507175003 | 12 | 153 | 9.7 | 19.3 | 0.00 | 0.00 | 0.00 | 21 | 1020.3 |
| 20260507174717 | 11 | 187 | 9.7 | 19.3 | 0.00 | 0.00 | 0.00 | 22 | 1020.3 |
| 20260507174003 | 11 | 218 | 8.0 | 17.7 | 0.00 | 0.00 | 0.00 | 22 | 1020.3 |
| 20260507173503 | 11 | 220 | 12.9 | 27.4 | 0.00 | 0.00 | 0.00 | 22 | 1020.4 |
| 20260507173003 | 11 | 231 | 14.5 | 27.4 | 0.00 | 0.00 | 0.00 | 24 | 1020.4 |
| 20260507172503 | 11 | 212 | 12.9 | 25.7 | 0.00 | 0.00 | 0.00 | 23 | 1020.5 |
| 20260507172218 | 11 | 199 | 12.9 | 20.9 | 0.00 | 0.00 | 0.00 | 23 | 1020.5 |
| 20260507171503 | 11 | 205 | 9.7 | 19.3 | 0.00 | 0.00 | 0.00 | 22 | 1020.6 |
| 20260507171003 | 11 | 253 | 12.9 | 20.9 | 0.00 | 0.00 | 0.00 | 23 | 1020.6 |
| 20260507170717 | 10 | 266 | 12.9 | 22.5 | 0.00 | 0.00 | 0.00 | 24 | 1020.7 |
| 20260507170003 | 11 | 256 | 8.0 | 22.5 | 0.00 | 0.00 | 0.00 | 24 | 1020.6 |
| 20260507165503 | 10 | 267 | 6.4 | 19.3 | 0.00 | 0.00 | 0.00 | 22 | 1020.6 |
| 20260507165003 | 10 | 186 | 8.0 | 17.7 | 0.00 | 0.00 | 0.00 | 22 | 1020.8 |
| 20260507164717 | 10 | 188 | 9.7 | 19.3 | 0.00 | 0.00 | 0.00 | 22 | 1020.8 |
| 20260507164003 | 10 | 212 | 11.3 | 20.9 | 0.00 | 0.00 | 0.00 | 24 | 1020.9 |
| 20260507163717 | 10 | 226 | 11.3 | 20.9 | 0.00 | 0.00 | 0.00 | 23 | 1020.9 |
| 20260507163003 | 10 | 257 | 6.4 | 16.1 | 0.00 | 0.00 | 0.00 | 23 | 1021.0 |
| 20260507162503 | 10 | 65 | 4.8 | 14.5 | 0.00 | 0.00 | 0.00 | 23 | 1021.0 |
| 20260507162003 | 11 | 55 | 6.4 | 14.5 | 0.00 | 0.00 | 0.00 | 21 | 1021.0 |
| 20260507161503 | 11 | 74 | 4.8 | 16.1 | 0.00 | 0.00 | 0.00 | 21 | 1021.0 |
| 20260507161003 | 11 | 68 | 4.8 | 16.1 | 0.00 | 0.00 | 0.00 | 20 | 1021.0 |
| 20260507160503 | 10 | 22 | 3.2 | 11.3 | 0.00 | 0.00 | 0.00 | 22 | 1021.1 |
| 20260507160003 | 10 | 26 | 6.4 | 14.5 | 0.00 | 0.00 | 0.00 | 21 | 1021.1 |
| 20260507155503 | 10 | 62 | 8.0 | 14.5 | 0.00 | 0.00 | 0.00 | 21 | 1021.1 |
| 20260507155003 | 10 | 78 | 6.4 | 14.5 | 0.00 | 0.00 | 0.00 | 22 | 1021.2 |
| 20260507154716 | 10 | 64 | 4.8 | 14.5 | 0.00 | 0.00 | 0.00 | 22 | 1021.2 |
| 20260507154217 | 9 | 65 | 6.4 | 16.1 | 0.00 | 0.00 | 0.00 | 23 | 1021.4 |
| 20260507153504 | 9 | 52 | 6.4 | 16.1 | 0.00 | 0.00 | 0.00 | 22 | 1021.4 |
| 20260507153003 | 9 | 56 | 4.8 | 12.9 | 0.00 | 0.00 | 0.00 | 23 | 1021.4 |
| 20260507152716 | 9 | 67 | 4.8 | 12.9 | 0.00 | 0.00 | 0.00 | 23 | 1021.4 |
| 20260507152003 | 8 | 50 | 8.0 | 14.5 | 0.00 | 0.00 | 0.00 | 22 | 1021.5 |
| 20260507151503 | 8 | 42 | 9.7 | 16.1 | 0.00 | 0.00 | 0.00 | 24 | 1021.6 |
| 20260507151003 | 7 | 44 | 11.3 | 17.7 | 0.00 | 0.00 | 0.00 | 24 | 1021.6 |
| 20260507150503 | 7 | 52 | 12.9 | 17.7 | 0.00 | 0.00 | 0.00 | 23 | 1021.6 |
| 20260507150003 | 7 | 54 | 11.3 | 17.7 | 0.00 | 0.00 | 0.00 | 24 | 1021.6 |
| 20260507145716 | 7 | 54 | 12.9 | 17.7 | 0.00 | 0.00 | 0.00 | 24 | 1021.5 |
| 20260507145003 | 6 | 55 | 12.9 | 19.3 | 0.00 | 0.00 | 0.00 | 25 | 1021.6 |
| 20260507144503 | 6 | 54 | 12.9 | 19.3 | 0.00 | 0.00 | 0.00 | 27 | 1021.5 |
| 20260507144003 | 6 | 52 | 14.5 | 20.9 | 0.00 | 0.00 | 0.00 | 27 | 1021.6 |
| 20260507143503 | 5 | 50 | 14.5 | 20.9 | 0.00 | 0.00 | 0.00 | 27 | 1021.6 |
| 20260507143003 | 5 | 50 | 12.9 | 19.3 | 0.00 | 0.00 | 0.00 | 28 | 1021.6 |
| 20260507142503 | 5 | 53 | 14.5 | 19.3 | 0.00 | 0.00 | 0.00 | 29 | 1021.6 |
| 20260507142003 | 5 | 58 | 12.9 | 19.3 | 0.00 | 0.00 | 0.00 | 30 | 1021.7 |
| 20260507141718 | 4 | 62 | 12.9 | 19.3 | 0.00 | 0.00 | 0.00 | 30 | 1021.8 |
| 20260507141003 | 4 | 64 | 14.5 | 19.3 | 0.00 | 0.00 | 0.00 | 31 | 1021.7 |
| 20260507140503 | 3 | 61 | 14.5 | 20.9 | 0.00 | 0.00 | 0.00 | 32 | 1021.6 |
| 20260507140003 | 3 | 60 | 14.5 | 20.9 | 0.00 | 0.00 | 0.00 | 32 | 1021.7 |
| 20260507135718 | 3 | 57 | 12.9 | 20.9 | 0.00 | 0.00 | 0.00 | 33 | 1021.7 |
| 20260507135217 | 3 | 53 | 14.5 | 20.9 | 0.00 | 0.00 | 0.00 | 33 | 1021.5 |
| 20260507134503 | 3 | 53 | 12.9 | 20.9 | 0.00 | 0.00 | 0.00 | 33 | 1021.4 |
| 20260507134217 | 3 | 51 | 12.9 | 19.3 | 0.00 | 0.00 | 0.00 | 34 | 1021.4 |
| 20260507133503 | 2 | 48 | 12.9 | 20.9 | 0.00 | 0.00 | 0.00 | 35 | 1021.3 |
| 20260507133003 | 2 | 50 | 12.9 | 20.9 | 0.00 | 0.00 | 0.00 | 35 | 1021.2 |
| 20260507132503 | 2 | 50 | 12.9 | 19.3 | 0.00 | 0.00 | 0.00 | 35 | 1021.2 |
| 20260507132003 | 1 | 50 | 11.3 | 19.3 | 0.00 | 0.00 | 0.00 | 36 | 1021.1 |
| 20260507131717 | 1 | 48 | 11.3 | 17.7 | 0.00 | 0.00 | 0.00 | 38 | 1021.1 |